Flag for Qatar Weather past 2 weeks in Al Khor, Qatar

Now
93 °F

Clear.


Feels Like: 117 °F
Forecast: 91 / 108 °F
Wind: 3 mph from Southeast

Location: Doha International Airport

Current Time: Aug 20, 2014 at 11:51:38 PM

Latest Report: Aug 20, 2014 at 11:00 PM


Visibility: 10 mi

Pressure: 29.65 "Hg

Humidity: 71%

Dew point: 82 °F

Location of Al KhorLocation

Historic Weather in Al Khor — Graph

°F

Al Khor temperature yesterday

Maximum temperature yesterday: 106 °F (at 12:00 PM)
Minimum temperature yesterday: 93 °F (at 12:00 AM)
Average temperature yesterday: 98 °F

Past Weeks' High & Low Weather Summary

 TemperatureHumidityPressure
High109 °F (Aug 8, 1:00 PM)89% (Aug 10, 11:00 PM)29.77 "Hg (Aug 10, 11:00 PM)
Low86 °F (Aug 13, 5:00 AM)17% (Aug 6, 1:00 PM)29.39 "Hg (Aug 8, 4:00 PM)
Average96 °F56%29.52 "Hg
* Reported Aug 5 10:00 PM — Aug 20 10:00 PM, Al Khor, Weather by CustomWeather, © 2014

Note: Actual official high and low records may vary slightly from our data, if they occured in-between our weather recording intervals... More about our weather records

Advertising

Al Khor weather history for previous 24 hours

 ConditionsComfort  
Time TempWeatherWind HumidityBarometerVisibility
10:00 PM
Aug 20
93 °FClear.2 mph71%29.65 "Hg10 mi
9:00 PM95 °FClear.5 mph71%29.68 "Hg10 mi
8:30 PM95 °FClear.6 mph71%29.65 "Hg10 mi
8:00 PM95 °FClear.7 mph71%29.65 "Hg10 mi
7:30 PM95 °FClear.7 mph71%29.65 "Hg10 mi
7:00 PM95 °FClear.7 mph67%29.65 "Hg10 mi
6:00 PM97 °FSunny.8 mph67%29.65 "Hg10 mi
5:30 PM97 °FSunny.9 mph63%29.65 "Hg10 mi
5:00 PM97 °FPassing clouds.9 mph67%29.68 "HgN/A
4:30 PM99 °FPassing clouds.10 mph60%29.65 "HgN/A
4:00 PM102 °FSunny.9 mph48%29.65 "Hg10 mi
3:00 PM102 °FSunny.12 mph54%29.65 "Hg10 mi
2:30 PM102 °FSunny.12 mph54%29.65 "Hg10 mi
2:00 PM102 °FSunny.10 mph51%29.65 "Hg10 mi
1:00 PM102 °FSunny.12 mph54%29.68 "Hg10 mi
12:00 PM102 °FClear.12 mph54%29.71 "Hg6 mi
11:00 AM102 °FClear.9 mph54%29.74 "Hg6 mi
10:00 AM100 °FClear.7 mph50%29.74 "Hg5 mi
9:00 AM99 °FClear.6 mph60%29.77 "Hg5 mi
8:00 AM97 °FClear.6 mph63%29.74 "Hg5 mi
7:00 AM95 °FClear.8 mph63%29.74 "Hg5 mi
6:00 AM93 °FClear.2 mph80%29.71 "Hg4 mi
5:00 AM93 °FClear.2 mph80%29.71 "Hg4 mi
4:30 AM93 °FClear.2 mph80%29.71 "Hg4 mi
4:00 AM93 °FClear.3 mph75%29.68 "Hg5 mi
3:30 AM93 °FClear.2 mph80%29.68 "Hg5 mi
3:00 AM93 °FClear.3 mph71%29.68 "Hg6 mi
2:30 AM93 °FClear.1 mph71%29.68 "Hg6 mi
2:00 AM93 °FClear.2 mph75%29.68 "Hg10 mi
1:30 AM93 °FClear.2 mph75%29.65 "Hg10 mi
1:00 AM95 °FClear.2 mph71%29.68 "Hg10 mi
12:30 AM95 °FClear.2 mph71%29.68 "Hg10 mi
12:00 AM95 °FClear.3 mph71%29.68 "Hg10 mi
11:00 PM
Aug 19
95 °FClear.5 mph67%29.68 "Hg10 mi
Weather by CustomWeather, © 2014

See weather overviewHow to use our weather pages